EDT,Max TemperatureF,Mean TemperatureF,Min TemperatureF,Max Dew PointF,MeanDew PointF,Min DewpointF,Max Humidity, Mean Humidity, Min Humidity, Max Sea Level PressureIn, Mean Sea Level PressureIn, Min Sea Level PressureIn, Max VisibilityMiles, Mean VisibilityMiles, Min VisibilityMiles, Max Wind SpeedMPH, Mean Wind SpeedMPH, Max Gust SpeedMPH,PrecipitationIn, CloudCover, Events, WindDirDegrees
2011-10-1,51,42,32,34,32,30,93,70,44,30.36,30.27,30.23,10,10,10,20,12,25,0.00,4,,24
2011-10-2,68,49,30,43,34,27,93,79,32,30.25,30.21,30.11,10,10,10,14,2,,0.00,0,,340
2011-10-3,66,52,37,45,41,36,93,79,43,30.28,30.22,30.18,10,10,4,9,4,,0.00,0,,5
2011-10-4,77,60,42,50,43,37,93,70,32,30.25,30.21,30.15,10,10,10,10,2,17,0.00,0,,198
2011-10-5,77,64,50,52,49,45,88,73,34,30.23,30.20,30.18,10,10,10,15,3,21,0.00,0,,183
2011-10-6,77,62,48,52,48,45,94,80,32,30.28,30.23,30.19,10,8,0,14,8,18,0.00,1,Fog,187
2011-10-7,78,63,48,54,50,46,94,76,32,30.24,30.18,30.10,10,8,3,25,10,31,0.00,0,,187
2011-10-8,82,71,60,54,50,46,72,57,28,30.19,30.13,30.09,10,10,10,22,17,30,0.00,0,,196
2011-10-9,75,62,48,54,51,46,94,75,41,30.29,30.24,30.19,10,10,10,13,9,,0.00,0,,202
2011-10-10,75,57,39,52,44,37,93,75,31,30.27,30.19,30.04,10,7,0,16,3,21,0.00,2,Fog,168
2011-10-11,73,62,50,57,50,46,94,75,44,30.03,29.99,29.91,10,10,2,18,9,24,0.00,2,Rain,185
2011-10-12,64,58,51,57,54,46,94,86,72,29.97,29.86,29.73,10,7,2,8,5,,0.00,5,Rain,183
2011-10-13,57,54,51,52,50,48,94,87,77,29.73,29.59,29.40,10,9,5,13,6,,0.01,5,Rain,169
2011-10-14,51,46,41,50,44,37,94,86,76,29.40,29.34,29.30,10,10,4,18,8,28,0.02,8,Rain,288
2011-10-15,46,44,41,37,35,30,87,75,53,29.62,29.45,29.32,10,10,5,29,18,39,0.00,6,Rain,296
2011-10-16,51,43,35,34,29,23,87,65,37,29.62,29.56,29.50,10,10,10,25,10,34,0.00,2,,255
2011-10-17,46,44,41,36,31,27,76,63,53,29.68,29.54,29.45,10,10,10,22,15,32,0.00,7,,278
2011-10-18,42,38,33,37,34,32,93,80,66,29.95,29.80,29.68,10,10,7,20,10,21,0.00,7,Rain,323
2011-10-19,44,40,35,37,35,32,93,81,66,30.00,29.94,29.86,10,9,4,28,10,34,0.01,8,Rain,19
2011-10-20,42,40,39,36,33,32,87,75,70,29.86,29.75,29.64,10,10,5,34,26,44,0.00,8,Rain,12
2011-10-21,50,40,30,34,31,27,93,74,50,29.97,29.90,29.80,10,10,10,22,12,26,0.00,5,,352
2011-10-22,53,42,30,41,32,27,93,82,51,30.03,29.97,29.92,10,9,0,14,2,,0.00,2,Fog,6
2011-10-23,50,41,32,43,37,30,100,89,58,30.00,29.85,29.70,10,4,0,13,4,17,0.01,8,Fog-Rain,210
2011-10-24,48,40,32,39,35,28,93,81,46,30.05,29.84,29.71,10,10,5,15,9,21,0.00,3,Rain,299
2011-10-25,42,36,30,34,31,27,93,84,66,30.09,30.05,29.98,10,10,10,10,2,,0.00,5,,20
2011-10-26,44,40,35,36,33,32,93,82,61,30.00,29.98,29.97,10,10,10,14,6,18,0.00,7,,356
2011-10-27,41,34,26,32,29,23,100,84,53,30.09,30.00,29.95,10,10,7,13,4,17,0.00,5,Rain-Snow,329
2011-10-28,48,38,28,32,28,23,93,77,40,30.08,30.04,29.96,10,10,10,10,3,20,0.00,5,Rain-Snow,200
2011-10-29,48,37,26,34,29,25,100,84,43,30.05,29.98,29.94,10,8,0,10,3,,0.00,3,Fog-Thunderstorm,228
2011-10-30,48,36,23,37,28,19,93,85,53,30.05,30.00,29.91,10,10,7,16,3,18,0.00,4,Rain,135
2011-10-31,46,42,39,41,38,34,93,87,70,30.00,29.93,29.88,10,8,0,12,8,17,0.01,8,Fog,149